[[[{"header":{"parameterUnit":"kt","parameterCategory":2,"dx":1,"dy":1,"la1":30.253999710083008,"la2":30.299108505249023,"lo1":-89.0895004272461,"lo2":-89.04439544677734,"nx":28,"ny":28,"refTime":"2022-10-28T21:00:00:Z","depth":0,"parameterNumber":1,"parameterNumberName":"U-component_of_WINDS"},"data":[5.5212,5.5296,5.5311,5.5414,5.5444,5.5516,5.5546,5.5586,5.5621,5.5708,5.576,5.578,5.5819,5.5883,5.5938,5.5946,5.5969,5.5991,5.5996,5.5888,5.5874,5.586,5.5842,5.5995,5.5996,5.6106,5.6107,5.6108,5.5138,5.5169,5.5227,5.5292,5.5342,5.5331,5.5381,5.5423,5.5487,5.5529,5.558,5.5657,5.5717,5.5748,5.5808,5.5847,5.5844,5.5863,5.586,5.5866,5.5752,5.5732,5.5865,5.5865,5.5865,5.5865,5.5865,5.5865,5.5007,5.5056,5.5104,5.5166,5.5202,5.5246,5.5295,5.5319,5.5374,5.5439,5.5442,5.5514,5.5557,5.5633,5.5661,5.5717,5.5697,5.5721,5.5727,5.5733,5.5739,5.5583,5.5727,5.5726,5.5726,5.5726,5.5726,0,5.4915,5.4924,5.4979,5.5039,5.5085,5.5131,5.5176,5.5206,5.5223,5.5268,5.5333,5.5372,5.5448,5.551,5.5567,5.559,5.558,5.5579,5.5596,5.5596,5.5592,5.5597,5.5411,5.5574,5.5573,5.5572,5.5571,5.5571,5.4785,5.484,5.4894,5.4931,5.4959,5.5017,5.5054,5.5065,5.5104,5.5159,5.5201,5.5262,5.5312,5.5411,5.5435,5.5491,5.5486,5.5548,5.5494,5.5494,5.5489,5.5486,5.5492,5.5557,5.5559,5.556,5.5562,0,5.4712,5.4731,5.482,5.4866,5.488,5.4936,5.4975,5.5023,5.5039,5.5108,5.5124,5.5149,5.5211,5.5225,5.5296,5.5301,5.5395,5.5388,5.5382,5.5382,5.544,5.5435,5.5621,5.5647,5.5486,5.5488,5.5489,0,5.4609,5.4679,5.4705,5.4754,5.4833,5.4842,5.4919,5.4941,5.4977,5.5031,5.5021,5.5071,5.508,5.5132,5.5139,5.5218,5.5231,5.5239,5.5241,5.5241,5.524,5.526,5.5253,5.5238,5.5237,5.5237,5.5236,0,5.4492,5.4585,5.4667,5.4691,5.4745,5.4783,5.4807,5.4846,5.4881,5.4928,5.4951,5.5005,5.5034,5.5075,5.5084,5.5048,5.518,5.5131,5.5189,5.5189,5.5217,5.5215,5.5377,5.5235,5.5234,5.5234,5.5234,0,5.4411,5.446,5.4573,5.4619,5.4643,5.4695,5.4749,5.4797,5.4838,5.4847,5.4883,5.4877,5.4945,5.4896,5.4991,5.4941,5.4971,5.4985,5.4989,5.4995,5.4941,5.5032,5.5184,5.5201,5.5003,5.5001,5.5,0,5.4273,5.4391,5.4399,5.4505,5.4562,5.4548,5.4606,5.4642,5.4658,5.4707,5.4723,5.4778,5.4744,5.4763,5.4808,5.4826,5.4891,5.4818,5.4888,5.4891,5.488,5.502,5.504,5.515,5.4975,5.4978,5.4979,0,5.4168,5.4232,5.425,5.4279,5.4328,5.4373,5.4439,5.4495,5.4528,5.4568,5.4624,5.4699,5.4678,5.4708,5.4707,5.4753,5.4847,5.4722,5.4723,5.4746,5.4962,5.4982,5.5,5.4837,5.484,5.4842,5.496,0,5.4045,5.4105,5.4154,5.4213,5.425,5.4316,5.4329,5.4367,5.4363,5.4377,5.4457,5.4487,5.4541,5.4564,5.4559,5.4659,5.4644,5.4619,5.4572,5.4663,5.4702,5.4718,5.4513,5.4512,5.4511,5.451,0,0,5.3909,5.3994,5.3998,5.4061,5.4093,5.4075,5.4145,5.4172,5.4228,5.425,5.4224,5.4335,5.4358,5.4454,5.4483,5.4504,5.4524,5.4489,5.4619,5.4631,5.4643,5.4684,5.4701,5.4508,5.4507,5.4507,5.4506,0,5.3867,5.3894,5.3962,5.3992,5.4036,5.4047,5.4063,5.4102,5.4113,5.419,5.4173,5.4221,5.4307,5.4336,5.4362,5.4479,5.4462,5.4494,5.4555,5.4607,5.4621,5.4633,5.4677,5.4693,5.4504,5.4504,5.4504,0,5.3766,5.3796,5.383,5.3899,5.3926,5.3982,5.3938,5.3997,5.4039,5.4012,5.4088,5.4106,5.4144,5.4231,5.427,5.4247,5.4406,5.4356,5.4363,5.4367,5.4419,5.4435,5.445,5.4257,5.4256,5.4255,0,0,5.3728,5.3782,5.3815,5.389,5.3909,5.3925,5.3955,5.3954,5.399,5.4004,5.4025,5.4059,5.411,5.4142,5.4189,5.4282,5.4291,5.4325,5.4337,5.4346,5.4355,5.4409,5.4425,5.4252,5.4252,5.4252,0,0,5.3708,5.375,5.374,5.383,5.3866,5.3901,5.3946,5.3934,5.3978,5.3971,5.397,5.3978,5.4059,5.4076,5.403,5.4172,5.4125,5.4136,5.4158,5.4173,5.4184,5.4179,5.3985,0,0,0,0,0,5.3671,5.3745,5.3736,5.3753,5.3838,5.3907,5.3917,5.3919,5.3887,5.3923,5.3939,5.3918,5.4051,5.4011,5.4027,5.4077,5.4209,5.4216,5.4224,5.4274,5.429,5.4303,0,0,0,0,0,0,5.3678,5.3698,5.3734,5.3773,5.3792,5.3904,5.385,5.3853,5.3883,5.3878,5.3916,5.3919,5.392,5.4003,5.4017,5.4065,5.398,5.4212,5.4218,5.4224,5.4279,5.4292,5.4303,0,0,0,0,0,5.3683,5.3699,5.3835,5.3772,5.3788,5.3809,5.3847,5.3849,5.3872,5.3896,5.3899,5.3871,5.3922,5.3933,5.4011,5.4059,5.3971,5.3976,5.4216,5.4221,5.4226,5.4286,0,0,0,0,0,0,5.3687,5.3701,5.3838,5.3843,5.3743,5.3802,5.3812,5.3846,5.3888,5.3891,5.385,5.3846,5.3924,5.3932,5.3942,5.4057,5.3963,5.3968,5.3971,5.422,5.4224,5.4227,0,0,0,0,0,0,5.3692,5.3705,5.3841,5.3805,5.3806,5.3796,5.3805,5.3869,5.3888,5.384,5.3837,5.3848,5.3909,5.3932,5.3939,5.404,5.3956,5.3962,5.3965,5.3967,5.4223,5.4226,0,0,0,0,0,0,5.3698,5.3709,5.3803,5.3804,5.3805,5.3861,5.3853,5.3939,5.386,5.3838,5.3853,5.3849,5.3909,5.3916,5.3937,5.4035,5.4039,5.3957,5.396,5.3963,5.3964,0,0,0,0,0,0,0,5.3702,5.3626,5.3808,5.3804,5.3804,5.389,5.3891,5.3893,5.3859,5.3856,5.3853,5.3851,5.3927,5.3933,5.3938,5.4032,0,0,5.3956,5.3959,0,0,0,0,0,0,0,0,5.3621,5.3624,5.3809,5.381,5.3811,5.389,5.3891,5.3892,5.3859,5.3856,5.3854,5.3852,5.3929,5.3933,5.3938,0,0,0,0,0,0,0,0,0,0,0,0,0,0,0,5.3809,5.381,0,5.389,5.3891,5.3892,5.3858,5.3856,5.3854,5.3853,5.393,5.3934,5.3937,0,0,0,0,0,0,0,0,0,0,0,0,0,0,0,0,0,0,0,0,0,0,0,0,0,0,0,0,0,0,0,0,0,0,0,0,0,0,0,0,0,0,0,0,0,0,0,0,0,0,0,0,0,0,0,0,0,0,0,0,0,0,0,0,0,0,0,0,0]}],[{"header":{"parameterUnit":"kt","parameterCategory":2,"dx":1,"dy":1,"la1":30.253999710083008,"la2":30.299108505249023,"lo1":-89.0895004272461,"lo2":-89.04439544677734,"nx":28,"ny":28,"refTime":"2022-10-28T21:00:00:Z","depth":0,"parameterNumber":2,"parameterNumberName":"V-component_of_WINDS"},"data":[-3.0364,-3.0423,-3.0412,-3.0474,-3.0475,-3.0516,-3.0527,-3.0539,-3.0546,-3.0593,-3.0618,-3.0612,-3.0614,-3.064,-3.0666,-3.0663,-3.0675,-3.0706,-3.0697,-3.0572,-3.0554,-3.0536,-3.0522,-3.0708,-3.0708,-3.0828,-3.0829,-3.083,-3.0277,-3.0279,-3.0308,-3.0329,-3.0354,-3.0319,-3.0332,-3.0355,-3.0392,-3.04,-3.0423,-3.0463,-3.0493,-3.0483,-3.0509,-3.0537,-3.0521,-3.0545,-3.0543,-3.0545,-3.041,-3.0395,-3.0557,-3.0557,-3.0557,-3.0557,-3.0557,-3.0557,-3.0117,-3.0153,-3.0158,-3.0189,-3.0196,-3.021,-3.0242,-3.0233,-3.0261,-3.0286,-3.0266,-3.0307,-3.0312,-3.0336,-3.0341,-3.0373,-3.0344,-3.0365,-3.0371,-3.0378,-3.0388,-3.022,-3.0376,-3.0375,-3.0375,-3.0374,-3.0374,0,-2.9997,-2.9985,-3.0011,-3.0035,-3.0056,-3.0073,-3.0085,-3.0104,-3.0073,-3.0097,-3.013,-3.0147,-3.0181,-3.0211,-3.0231,-3.0231,-3.0196,-3.019,-3.0205,-3.0217,-3.0227,-3.0224,-3.0008,-3.0185,-3.0184,-3.0183,-3.0182,-3.0181,-2.9836,-2.9878,-2.9876,-2.9896,-2.99,-2.9932,-2.9949,-2.9917,-2.9937,-2.9947,-2.9979,-3.0008,-3.003,-3.0085,-3.0072,-3.0097,-3.008,-3.0149,-3.0083,-3.0093,-3.0083,-3.0082,-3.0087,-3.0163,-3.0165,-3.0167,-3.0169,0,-2.9747,-2.9726,-2.9786,-2.978,-2.9779,-2.9825,-2.9819,-2.9852,-2.9838,-2.9882,-2.989,-2.9869,-2.9902,-2.9877,-2.9909,-2.9895,-2.9971,-2.9953,-2.997,-2.9965,-3.0027,-3.0022,-3.0226,-3.0251,-3.0056,-3.0058,-3.006,0,-2.9603,-2.9658,-2.9623,-2.9659,-2.9719,-2.9685,-2.9746,-2.974,-2.9743,-2.9777,-2.9732,-2.9765,-2.9727,-2.9757,-2.9737,-2.9794,-2.9799,-2.9792,-2.9786,-2.9797,-2.9798,-2.9807,-2.9799,-2.9769,-2.9768,-2.9767,-2.9766,0,-2.9467,-2.9511,-2.9569,-2.9575,-2.9573,-2.96,-2.96,-2.9602,-2.9618,-2.9634,-2.9645,-2.9666,-2.9678,-2.9695,-2.9669,-2.9625,-2.9737,-2.9672,-2.9731,-2.9732,-2.9757,-2.9756,-2.9942,-2.9765,-2.9764,-2.9764,-2.9764,0,-2.9346,-2.9364,-2.9449,-2.9446,-2.9459,-2.9496,-2.9515,-2.9541,-2.9546,-2.9536,-2.9548,-2.9514,-2.956,-2.9498,-2.9561,-2.9512,-2.9527,-2.9524,-2.9527,-2.9531,-2.9461,-2.9571,-2.9749,-2.9768,-2.9534,-2.9532,-2.953,0,-2.9198,-2.9278,-2.9248,-2.933,-2.9363,-2.9311,-2.9352,-2.9357,-2.9346,-2.9372,-2.9359,-2.939,-2.9337,-2.9343,-2.9378,-2.9366,-2.943,-2.9356,-2.9396,-2.9398,-2.9399,-2.9562,-2.9595,-2.9713,-2.9505,-2.9508,-2.9509,0,-2.908,-2.9074,-2.9091,-2.9097,-2.9097,-2.9124,-2.917,-2.9192,-2.9212,-2.9221,-2.926,-2.93,-2.9262,-2.9272,-2.9246,-2.9283,-2.9385,-2.9238,-2.9237,-2.9267,-2.9489,-2.9521,-2.9541,-2.936,-2.9363,-2.9365,-2.949,0,-2.8906,-2.8942,-2.8985,-2.8998,-2.9014,-2.9062,-2.9035,-2.9056,-2.9029,-2.9016,-2.9071,-2.9066,-2.9088,-2.9102,-2.9076,-2.9168,-2.9149,-2.9108,-2.9045,-2.9152,-2.9192,-2.9209,-2.8988,-2.8986,-2.8984,-2.8982,0,0,-2.877,-2.882,-2.8785,-2.8828,-2.8839,-2.8783,-2.8837,-2.8841,-2.8851,-2.8861,-2.8826,-2.8882,-2.8879,-2.8949,-2.898,-2.8987,-2.9002,-2.8965,-2.9101,-2.9114,-2.9126,-2.917,-2.9188,-2.8979,-2.8979,-2.8978,-2.8978,0,-2.8701,-2.8699,-2.8753,-2.8756,-2.8759,-2.8741,-2.8755,-2.8747,-2.8741,-2.8793,-2.8745,-2.8774,-2.8818,-2.8823,-2.8831,-2.8956,-2.8918,-2.8964,-2.9042,-2.9085,-2.91,-2.9114,-2.916,-2.9177,-2.8973,-2.8974,-2.8974,0,-2.8581,-2.8575,-2.8597,-2.8619,-2.862,-2.8655,-2.8582,-2.862,-2.8646,-2.858,-2.8632,-2.8626,-2.8628,-2.8696,-2.8726,-2.8694,-2.8843,-2.879,-2.88,-2.8803,-2.8842,-2.8861,-2.8878,-2.8658,-2.8657,-2.8656,0,0,-2.8524,-2.8556,-2.8539,-2.8602,-2.8606,-2.858,-2.8595,-2.8569,-2.8573,-2.8574,-2.8564,-2.8569,-2.8595,-2.8612,-2.8634,-2.8713,-2.8711,-2.8752,-2.8767,-2.8779,-2.8789,-2.8832,-2.8851,-2.8652,-2.8652,-2.8652,0,0,-2.8497,-2.848,-2.8452,-2.8522,-2.8527,-2.8514,-2.8554,-2.8519,-2.8536,-2.8527,-2.8485,-2.8485,-2.8548,-2.8542,-2.8497,-2.8612,-2.855,-2.856,-2.8613,-2.8631,-2.8646,-2.8646,-2.8421,0,0,0,0,0,-2.8411,-2.8482,-2.8457,-2.8465,-2.8491,-2.8528,-2.8531,-2.8498,-2.8456,-2.8488,-2.8475,-2.8432,-2.851,-2.8468,-2.8476,-2.8527,-2.8605,-2.8613,-2.8621,-2.8707,-2.8727,-2.8743,0,0,0,0,0,0,-2.8414,-2.8423,-2.8455,-2.8445,-2.8451,-2.8525,-2.8446,-2.8439,-2.8451,-2.8442,-2.8436,-2.8432,-2.8404,-2.8462,-2.8469,-2.8519,-2.8418,-2.8608,-2.8615,-2.8622,-2.8714,-2.873,-2.8744,0,0,0,0,0,-2.8416,-2.8423,-2.8473,-2.8444,-2.8449,-2.8422,-2.8443,-2.8436,-2.8445,-2.8424,-2.8418,-2.8419,-2.8406,-2.841,-2.8466,-2.8516,-2.8413,-2.8415,-2.8613,-2.8618,-2.8623,-2.8722,0,0,0,0,0,0,-2.8417,-2.8417,-2.8474,-2.8474,-2.8414,-2.8418,-2.8417,-2.8434,-2.8425,-2.842,-2.8405,-2.8398,-2.8409,-2.8412,-2.8415,-2.8517,-2.8408,-2.8411,-2.8413,-2.8617,-2.8621,-2.8625,0,0,0,0,0,0,-2.8413,-2.8418,-2.8474,-2.8438,-2.8434,-2.8413,-2.8413,-2.8454,-2.8425,-2.8406,-2.84,-2.8402,-2.8404,-2.8413,-2.8415,-2.8481,-2.8405,-2.8408,-2.841,-2.8411,-2.8621,-2.8624,0,0,0,0,0,0,-2.8414,-2.8418,-2.8438,-2.8435,-2.8431,-2.8431,-2.8449,-2.8478,-2.8395,-2.8407,-2.8387,-2.8383,-2.8406,-2.8408,-2.8416,-2.8481,-2.8481,-2.8405,-2.8407,-2.8408,-2.8409,0,0,0,0,0,0,0,-2.8415,-2.8396,-2.8472,-2.8432,-2.8428,-2.8476,-2.8476,-2.8476,-2.8395,-2.8391,-2.8388,-2.8385,-2.8388,-2.8391,-2.8395,-2.8481,0,0,-2.8404,-2.8406,0,0,0,0,0,0,0,0,-2.8393,-2.8395,-2.8472,-2.8472,-2.8472,-2.8476,-2.8476,-2.8476,-2.8394,-2.8391,-2.8389,-2.8386,-2.8389,-2.8392,-2.8394,0,0,0,0,0,0,0,0,0,0,0,0,0,0,0,-2.8472,-2.8472,0,-2.8476,-2.8476,-2.8476,-2.8394,-2.8391,-2.8389,-2.8387,-2.839,-2.8392,-2.8394,0,0,0,0,0,0,0,0,0,0,0,0,0,0,0,0,0,0,0,0,0,0,0,0,0,0,0,0,0,0,0,0,0,0,0,0,0,0,0,0,0,0,0,0,0,0,0,0,0,0,0,0,0,0,0,0,0,0,0,0,0,0,0,0,0,0,0,0,0]}]]]